FDX2448 KLAS-KLAX

Flight info

Callsign FDX2448
Flight time 0h 43m
Altitude 28000
Route RADYR2 BLAQQ SHTNR ANJLL4
Aircraft B77L/H-SDE1E2E3FGHIJ2J3J4J5M1RWXY/LB1D1

Departure

Time 2026-05-04 04:13
Airport Harry Reid International Airport (KLAS)

Arrival

Time 2026-05-04 04:56
Airport Los Angeles International Airport (KLAX)
Time Latitude Longitude Altitude Speed Heading
2026-05-04 03:52 36.08237 -115.12558 2091 ft 0 kts 89°
2026-05-04 04:02 36.08237 -115.12560 2091 ft 1 kts 89°
2026-05-04 04:02 36.08237 -115.12567 2091 ft 1 kts 89°
2026-05-04 04:03 36.08237 -115.12574 2054 ft 1 kts 89°
2026-05-04 04:03 36.08237 -115.12580 2054 ft 1 kts 89°
2026-05-04 04:03 36.08237 -115.12587 2053 ft 1 kts 89°
2026-05-04 04:03 36.08237 -115.12593 2077 ft 1 kts 89°
2026-05-04 04:04 36.08237 -115.12600 2070 ft 1 kts 89°
2026-05-04 04:04 36.08236 -115.12607 2091 ft 1 kts 104°
2026-05-04 04:04 36.08237 -115.12613 2090 ft 1 kts 128°
2026-05-04 04:04 36.08241 -115.12619 2090 ft 1 kts 134°
2026-05-04 04:05 36.08244 -115.12623 2090 ft 1 kts 138°
2026-05-04 04:05 36.08248 -115.12628 2090 ft 1 kts 142°
2026-05-04 04:05 36.08253 -115.12632 2089 ft 1 kts 146°
2026-05-04 04:05 36.08256 -115.12636 2089 ft 0 kts 176°
2026-05-04 04:07 36.08255 -115.12636 2089 ft 0 kts 176°
2026-05-04 04:07 36.08225 -115.12634 2092 ft 12 kts 179°
2026-05-04 04:07 36.08094 -115.12639 2103 ft 21 kts 182°
2026-05-04 04:07 36.07947 -115.12638 2114 ft 21 kts 178°
2026-05-04 04:08 36.07817 -115.12639 2119 ft 13 kts 180°
2026-05-04 04:08 36.07754 -115.12586 2127 ft 13 kts 83°
2026-05-04 04:08 36.07756 -115.12475 2126 ft 13 kts 92°
2026-05-04 04:08 36.07752 -115.12365 2125 ft 13 kts 92°
2026-05-04 04:09 36.07753 -115.12255 2125 ft 13 kts 88°
2026-05-04 04:09 36.07752 -115.12178 2125 ft 0 kts 101°
2026-05-04 04:09 36.07751 -115.12175 2125 ft 3 kts 109°
2026-05-04 04:09 36.07687 -115.12124 2129 ft 16 kts 171°
2026-05-04 04:10 36.07633 -115.12175 2130 ft 11 kts 280°
2026-05-04 04:10 36.07644 -115.12270 2128 ft 3 kts 266°
2026-05-04 04:11 36.07644 -115.12271 2128 ft 0 kts 266°
2026-05-04 04:12 36.07641 -115.12397 2130 ft 50 kts 269°
2026-05-04 04:13 36.07642 -115.13175 2130 ft 131 kts 270°
2026-05-04 04:13 36.07641 -115.14577 2264 ft 182 kts 271°
2026-05-04 04:13 36.07622 -115.16180 2965 ft 189 kts 266°
2026-05-04 04:13 36.07533 -115.17743 3925 ft 177 kts 265°
2026-05-04 04:14 36.07476 -115.19279 4560 ft 185 kts 266°
2026-05-04 04:14 36.07414 -115.20969 4877 ft 208 kts 265°
2026-05-04 04:14 36.07265 -115.22789 5498 ft 217 kts 260°
2026-05-04 04:14 36.06902 -115.24647 6029 ft 229 kts 241°
2026-05-04 04:15 36.05862 -115.26194 6558 ft 246 kts 218°
2026-05-04 04:15 36.04291 -115.27151 7095 ft 260 kts 200°
2026-05-04 04:15 36.02585 -115.27893 7689 ft 260 kts 201°
2026-05-04 04:15 36.00907 -115.28648 8073 ft 262 kts 200°
2026-05-04 04:16 35.99155 -115.29429 8069 ft 270 kts 198°
2026-05-04 04:16 35.97334 -115.29986 8769 ft 270 kts 192°
2026-05-04 04:16 35.95487 -115.30424 9811 ft 271 kts 191°
2026-05-04 04:16 35.93619 -115.30852 10638 ft 277 kts 190°
2026-05-04 04:17 35.91641 -115.31309 11006 ft 303 kts 190°
2026-05-04 04:17 35.89492 -115.31816 11224 ft 333 kts 190°
2026-05-04 04:17 35.87133 -115.32380 11692 ft 353 kts 190°
2026-05-04 04:17 35.84686 -115.32970 12503 ft 359 kts 191°
2026-05-04 04:18 35.82221 -115.33574 13048 ft 360 kts 191°
2026-05-04 04:18 35.79742 -115.34180 13060 ft 365 kts 191°
2026-05-04 04:18 35.77240 -115.34791 13063 ft 366 kts 191°
2026-05-04 04:18 35.74776 -115.35394 13063 ft 365 kts 191°
2026-05-04 04:19 35.72282 -115.36005 13068 ft 365 kts 191°
2026-05-04 04:19 35.69798 -115.36613 13057 ft 364 kts 191°
2026-05-04 04:19 35.67311 -115.37221 13064 ft 364 kts 191°
2026-05-04 04:19 35.64808 -115.37833 13608 ft 369 kts 191°
2026-05-04 04:20 35.62273 -115.38451 14536 ft 372 kts 191°
2026-05-04 04:20 35.59731 -115.38873 15475 ft 374 kts 182°
2026-05-04 04:20 35.57101 -115.38687 16312 ft 382 kts 176°
2026-05-04 04:20 35.54433 -115.38388 17129 ft 388 kts 178°
2026-05-04 04:21 35.51721 -115.38142 17962 ft 393 kts 179°
2026-05-04 04:21 35.48972 -115.37937 18722 ft 398 kts 180°
2026-05-04 04:21 35.46201 -115.37756 19501 ft 395 kts 184°
2026-05-04 04:21 35.43481 -115.38130 20104 ft 393 kts 200°
2026-05-04 04:22 35.41024 -115.39426 20825 ft 388 kts 212°
2026-05-04 04:22 35.38649 -115.41007 21548 ft 391 kts 213°
2026-05-04 04:22 35.36242 -115.42590 22296 ft 394 kts 213°
2026-05-04 04:22 35.33814 -115.44171 23048 ft 396 kts 213°
2026-05-04 04:23 35.31357 -115.45758 23733 ft 399 kts 213°
2026-05-04 04:23 35.28889 -115.47343 24304 ft 403 kts 213°
2026-05-04 04:23 35.26390 -115.48944 24840 ft 407 kts 213°
2026-05-04 04:23 35.23901 -115.50534 25411 ft 410 kts 213°
2026-05-04 04:24 35.21374 -115.52144 26235 ft 407 kts 213°
2026-05-04 04:24 35.18872 -115.53738 27102 ft 404 kts 213°
2026-05-04 04:24 35.16367 -115.55335 27764 ft 406 kts 213°
2026-05-04 04:24 35.13866 -115.56932 27842 ft 404 kts 214°
2026-05-04 04:25 35.11563 -115.58813 27838 ft 391 kts 227°
2026-05-04 04:25 35.09728 -115.61224 27864 ft 389 kts 232°
2026-05-04 04:25 35.07893 -115.63671 27856 ft 393 kts 231°
2026-05-04 04:25 35.06021 -115.66093 27856 ft 391 kts 230°
2026-05-04 04:26 35.04145 -115.68488 27845 ft 389 kts 230°
2026-05-04 04:26 35.02295 -115.70841 27845 ft 388 kts 230°
2026-05-04 04:26 35.00428 -115.73213 27844 ft 387 kts 230°
2026-05-04 04:26 34.98564 -115.75582 27840 ft 386 kts 230°
2026-05-04 04:27 34.96705 -115.77946 27844 ft 386 kts 230°
2026-05-04 04:27 34.94842 -115.80315 27840 ft 386 kts 230°
2026-05-04 04:27 34.92983 -115.82678 27826 ft 387 kts 230°
2026-05-04 04:27 34.91117 -115.85049 27826 ft 387 kts 230°
2026-05-04 04:28 34.89249 -115.87422 27827 ft 388 kts 230°
2026-05-04 04:28 34.87377 -115.89796 27813 ft 388 kts 230°
2026-05-04 04:28 34.85528 -115.92140 27809 ft 388 kts 230°
2026-05-04 04:28 34.83650 -115.94518 27814 ft 389 kts 230°
2026-05-04 04:29 34.81778 -115.96891 27828 ft 388 kts 230°
2026-05-04 04:29 34.79905 -115.99261 27784 ft 388 kts 230°
2026-05-04 04:29 34.78037 -116.01623 27792 ft 387 kts 230°
2026-05-04 04:29 34.76174 -116.03980 27795 ft 385 kts 230°
2026-05-04 04:30 34.74322 -116.06330 27805 ft 383 kts 230°
2026-05-04 04:30 34.72479 -116.08680 27800 ft 383 kts 230°
2026-05-04 04:30 34.70666 -116.10993 27788 ft 383 kts 230°
2026-05-04 04:30 34.68829 -116.13335 27789 ft 382 kts 230°
2026-05-04 04:31 34.66986 -116.15681 27802 ft 382 kts 230°
2026-05-04 04:31 34.65155 -116.18010 27797 ft 381 kts 230°
2026-05-04 04:31 34.63343 -116.20312 27795 ft 380 kts 230°
2026-05-04 04:31 34.61515 -116.22636 27807 ft 381 kts 230°
2026-05-04 04:32 34.59679 -116.24962 27797 ft 382 kts 230°
2026-05-04 04:32 34.57837 -116.27296 27789 ft 382 kts 230°
2026-05-04 04:32 34.55993 -116.29629 27801 ft 382 kts 230°
2026-05-04 04:32 34.54148 -116.31965 27804 ft 382 kts 230°
2026-05-04 04:33 34.52308 -116.34294 27791 ft 383 kts 230°
2026-05-04 04:33 34.50465 -116.36624 27793 ft 383 kts 230°
2026-05-04 04:33 34.48619 -116.38956 27783 ft 383 kts 230°
2026-05-04 04:33 34.46801 -116.41254 27770 ft 383 kts 230°
2026-05-04 04:34 34.44954 -116.43584 27777 ft 382 kts 230°
2026-05-04 04:34 34.43112 -116.45903 27787 ft 380 kts 230°
2026-05-04 04:34 34.41408 -116.48335 27775 ft 376 kts 239°
2026-05-04 04:34 34.40209 -116.51107 27800 ft 370 kts 246°
2026-05-04 04:35 34.39122 -116.53898 27790 ft 371 kts 245°
2026-05-04 04:35 34.37983 -116.56707 27770 ft 372 kts 245°
2026-05-04 04:35 34.36824 -116.59523 27783 ft 374 kts 244°
2026-05-04 04:35 34.35656 -116.62353 27791 ft 377 kts 244°
2026-05-04 04:36 34.34481 -116.65195 27807 ft 378 kts 244°
2026-05-04 04:36 34.33318 -116.68011 27797 ft 365 kts 244°
2026-05-04 04:36 34.32232 -116.70683 27790 ft 353 kts 245°
2026-05-04 04:36 34.31164 -116.73344 27577 ft 352 kts 245°
2026-05-04 04:37 34.27955 -116.81349 26097 ft 348 kts 245°
2026-05-04 04:37 34.26894 -116.83978 25587 ft 346 kts 244°
2026-05-04 04:38 34.25840 -116.86593 25075 ft 345 kts 244°
2026-05-04 04:38 34.24790 -116.89198 24605 ft 345 kts 244°
2026-05-04 04:38 34.23751 -116.91772 24094 ft 344 kts 244°
2026-05-04 04:38 34.22698 -116.94377 23592 ft 344 kts 244°
2026-05-04 04:39 34.21645 -116.96978 23041 ft 344 kts 244°
2026-05-04 04:39 34.20664 -116.99609 22554 ft 343 kts 249°
2026-05-04 04:39 34.19902 -117.02346 22040 ft 343 kts 251°
2026-05-04 04:39 34.19214 -117.05095 21557 ft 340 kts 252°
2026-05-04 04:40 34.18520 -117.07824 21064 ft 339 kts 252°
2026-05-04 04:40 34.17805 -117.10533 20609 ft 337 kts 251°
2026-05-04 04:40 34.17087 -117.13191 20148 ft 337 kts 251°
2026-05-04 04:40 34.16358 -117.15875 19649 ft 335 kts 251°
2026-05-04 04:41 34.15629 -117.18535 19234 ft 334 kts 251°
2026-05-04 04:41 34.15143 -117.20301 18984 ft 334 kts 251°
2026-05-04 04:41 34.14408 -117.22966 18507 ft 334 kts 251°
2026-05-04 04:41 34.13675 -117.25620 17973 ft 333 kts 251°
2026-05-04 04:42 34.12968 -117.28189 17454 ft 310 kts 250°
2026-05-04 04:42 34.12311 -117.30578 17002 ft 290 kts 250°
2026-05-04 04:42 34.11682 -117.32856 16609 ft 290 kts 250°
2026-05-04 04:42 34.11036 -117.35192 16183 ft 298 kts 250°
2026-05-04 04:43 34.10370 -117.37615 15758 ft 311 kts 251°
2026-05-04 04:43 34.09726 -117.40156 15304 ft 320 kts 251°
2026-05-04 04:43 34.09090 -117.42741 14828 ft 322 kts 251°
2026-05-04 04:43 34.08447 -117.45333 14368 ft 321 kts 251°
2026-05-04 04:44 34.07809 -117.47890 14155 ft 313 kts 251°
2026-05-04 04:44 34.07177 -117.50366 13893 ft 306 kts 249°
2026-05-04 04:44 34.06395 -117.52718 13493 ft 305 kts 244°
2026-05-04 04:44 34.05522 -117.55049 13106 ft 304 kts 244°
2026-05-04 04:45 34.04650 -117.57367 12715 ft 303 kts 244°
2026-05-04 04:45 34.03791 -117.59688 12339 ft 301 kts 245°
2026-05-04 04:45 34.02950 -117.62000 11966 ft 300 kts 245°
2026-05-04 04:47 33.99893 -117.76025 9842 ft 280 kts 262°
2026-05-04 04:47 33.99695 -117.78309 9458 ft 277 kts 262°
2026-05-04 04:47 33.99479 -117.80607 9063 ft 275 kts 261°
2026-05-04 04:47 33.99258 -117.82895 8674 ft 274 kts 262°
2026-05-04 04:48 33.99041 -117.85160 8322 ft 269 kts 262°
2026-05-04 04:49 33.98185 -117.93914 7050 ft 267 kts 262°
2026-05-04 04:49 33.97974 -117.96068 6880 ft 256 kts 262°
2026-05-04 04:49 33.97769 -117.98147 6748 ft 245 kts 262°
2026-05-04 04:49 33.97570 -118.00163 6429 ft 241 kts 261°
2026-05-04 04:50 33.97373 -118.02152 6145 ft 236 kts 262°
2026-05-04 04:50 33.97177 -118.04118 5738 ft 237 kts 262°
2026-05-04 04:50 33.96995 -118.06088 5330 ft 235 kts 263°
2026-05-04 04:50 33.96811 -118.08035 4939 ft 233 kts 262°
2026-05-04 04:51 33.96618 -118.09967 4562 ft 231 kts 262°
2026-05-04 04:51 33.96423 -118.11886 4186 ft 230 kts 262°
2026-05-04 04:51 33.96229 -118.13790 3842 ft 228 kts 261°
2026-05-04 04:51 33.96036 -118.15684 3455 ft 227 kts 262°
2026-05-04 04:52 33.95844 -118.17567 3098 ft 225 kts 262°
2026-05-04 04:52 33.95662 -118.19364 3001 ft 211 kts 262°
2026-05-04 04:52 33.95492 -118.21035 2980 ft 192 kts 262°
2026-05-04 04:52 33.95332 -118.22601 2717 ft 185 kts 262°
2026-05-04 04:53 33.95179 -118.24106 2466 ft 178 kts 263°
2026-05-04 04:53 33.95032 -118.25549 2235 ft 168 kts 263°
2026-05-04 04:53 33.94885 -118.26988 2017 ft 177 kts 263°
2026-05-04 04:53 33.94739 -118.28425 1765 ft 163 kts 263°
2026-05-04 04:54 33.94609 -118.29695 1533 ft 142 kts 263°
2026-05-04 04:54 33.94494 -118.30828 1380 ft 138 kts 264°
2026-05-04 04:54 33.94375 -118.32001 1176 ft 142 kts 263°
2026-05-04 04:54 33.94270 -118.33167 970 ft 138 kts 263°
2026-05-04 04:55 33.94145 -118.34314 779 ft 138 kts 262°
2026-05-04 04:55 33.94018 -118.35470 586 ft 140 kts 264°
2026-05-04 04:55 33.93910 -118.36656 409 ft 144 kts 266°
2026-05-04 04:55 33.93809 -118.37820 288 ft 138 kts 260°
2026-05-04 04:56 33.93669 -118.38954 141 ft 133 kts 262°
2026-05-04 04:56 33.93570 -118.39892 130 ft 72 kts 264°
2026-05-04 04:56 33.93512 -118.40160 127 ft 18 kts 240°
2026-05-04 04:56 33.93455 -118.40193 126 ft 3 kts 163°
2026-05-04 04:57 33.93453 -118.40193 127 ft 1 kts 163°
2026-05-04 04:57 33.93445 -118.40188 128 ft 2 kts 147°
2026-05-04 04:57 33.93432 -118.40158 126 ft 6 kts 108°
2026-05-04 04:57 33.93429 -118.40103 131 ft 7 kts 88°
2026-05-04 04:58 33.93433 -118.40044 126 ft 7 kts 83°
2026-05-04 04:58 33.93440 -118.39980 127 ft 8 kts 83°
2026-05-04 04:58 33.93447 -118.39912 128 ft 9 kts 83°
2026-05-04 04:58 33.93454 -118.39838 129 ft 9 kts 83°
2026-05-04 04:59 33.93462 -118.39761 126 ft 10 kts 83°
2026-05-04 04:59 33.93470 -118.39680 129 ft 10 kts 83°
2026-05-04 04:59 33.93479 -118.39596 125 ft 10 kts 83°
2026-05-04 04:59 33.93488 -118.39508 130 ft 11 kts 83°
2026-05-04 05:00 33.93497 -118.39420 127 ft 11 kts 83°
2026-05-04 05:00 33.93506 -118.39326 128 ft 11 kts 83°
2026-05-04 05:00 33.93525 -118.39137 126 ft 12 kts 83°
2026-05-04 05:01 33.93535 -118.39039 126 ft 12 kts 83°
2026-05-04 05:01 33.93527 -118.38944 126 ft 12 kts 126°
2026-05-04 05:01 33.93451 -118.38911 128 ft 12 kts 174°
2026-05-04 05:01 33.93407 -118.38906 128 ft 0 kts 174°
2026-05-04 05:02 33.93400 -118.38905 127 ft 2 kts 174°
2026-05-04 05:02 33.93396 -118.38905 128 ft 0 kts 174°